Weather in Morshchikhinskaya

Russia / Arkhangel'skaya Oblast'     61°46′15″N   38°02′43″E
temp.,
°C
wind,
m/s
gust,
m/s
humid.,
%
clouds,
%
prec.,
mm/h
press.,
hPa
HPBL,
m
12 may, wed
wed1200:00+13ssw4137730 0.0 1026305
03:00+11ssw310855 0.0 1027204
06:00+13ssw29745 0.0 1027254
09:00+18ssw34535 0.0 1027652
12:00+22ssw34435 0.0 10261239
15:00+23s33380 0.0 10251427
18:00+22ssw23430 0.0 10241426
21:00+15s22640 0.0 102411
13 may, thu
thu1300:00+13s25740 0.0 102470
03:00+12sse22815 0.0 102438
06:00+14sse26745 0.0 1023156
09:00+20sse475820 0.0 1022628
12:00+23sse584442 0.0 10212071
15:00+20sse465816 0.4 10201043
18:00+20sse365824 0.1 10181044
21:00+15ese22830 0.2 101726
14 may, fri
fri1400:00+14ese26895 0.2 1016112
03:00+12se3109410 0.2 1014263
06:00+13sse3994100 0.1 1013529
09:00+15ssw577295 0.3 10131031
12:00+15ssw576897 0.6 10141188
15:00+16sw366144 1.6 1015949
18:00+18sw37505 0.3 10141947
21:00+15ssw266289 0.3 1014154
15 may, sat
sat1500:00+10ssw26805 0.0 1014113
03:00+9ssw228492 0.0 101415
06:00+12s127355 0.0 101493
09:00+17se2352100 0.0 1013680
12:00+20se234296 0.0 10121200
15:00+22se2545100 0.0 10101701
18:00+15ese2694100 3.9 1008221
21:00+15e118968 5.6 100725
16 may, sun
sun1600:00+13ene2497100 0.0 1005102
03:00+12e1197100 0.0 100415
06:00+13s1497100 1.4 1004188
09:00+14wsw1393100 2.4 1004213
12:00+14wsw0194100 1.9 1005103
15:00+17wnw3478100 2.4 1005862
18:00+15nw3689100 1.9 1006513
21:00+12nnw3592100 2.0 1009290